This is the latest recevied weather packets stored in our database for station/object K8RRT. If no packets are shown the sender has not sent any weather packets the latest 10 day(s).
| Time | Temp. | Humidity | Pressure | Rain* | Wind** | Luminosity | Snow |
|---|---|---|---|---|---|---|---|
| 1778077190 | 15.56° C | 99% | 1005.3 hPa | 0 mm | - | 81 W/m² | - |
| 1778076888 | 16.11° C | 99% | 1005.4 hPa | 0 mm | - | 82 W/m² | - |
| 1778076587 | 15.56° C | 99% | 1005.2 hPa | 1.27 mm | - | 102 W/m² | - |
| 1778076283 | 15.56° C | 99% | 1005.4 hPa | 3.05 mm | - | 81 W/m² | - |
| 1778075980 | 15.56° C | 99% | 1005.3 hPa | 1.78 mm | - | 85 W/m² | - |
| 1778075677 | 15.56° C | 99% | 1005.6 hPa | 0 mm | - | 49 W/m² | - |
| 1778075373 | 15.56° C | 99% | 1005.3 hPa | 0 mm | - | 47 W/m² | - |
| 1778075070 | 15.56° C | 99% | 1005.2 hPa | 1.27 mm | - | 74 W/m² | - |
| 1778074766 | 15.56° C | 99% | 1005 hPa | 1.27 mm | - | 62 W/m² | - |
| 1778074463 | 15.56° C | 99% | 1004.9 hPa | 0 mm | - | 56 W/m² | - |
| 1778074160 | 15.56° C | 99% | 1004.8 hPa | 0 mm | - | 53 W/m² | - |
| 1778073857 | 15.56° C | 99% | 1004.3 hPa | 0 mm | - | 51 W/m² | - |
| 1778073555 | 15.56° C | 99% | 1004.3 hPa | 0 mm | - | 51 W/m² | - |
| 1778073251 | 15.56° C | 99% | 1004.3 hPa | 0 mm | - | 55 W/m² | - |
| 1778072948 | 15.56° C | 99% | 1004.3 hPa | 0 mm | - | 66 W/m² | - |
| 1778072644 | 15.56° C | 99% | 1004 hPa | 0 mm | - | 60 W/m² | - |
| 1778072343 | 15° C | 99% | 1004.2 hPa | 0 mm | - | 47 W/m² | - |
| 1778072041 | 15° C | 99% | 1004.3 hPa | 0 mm | - | 42 W/m² | - |
| 1778071739 | 15° C | 99% | 1004.1 hPa | 0 mm | - | 37 W/m² | - |
| 1778071435 | 15° C | 99% | 1004 hPa | 0 mm | - | 47 W/m² | - |
| 1778071133 | 15° C | 99% | 1004.1 hPa | 0 mm | - | 34 W/m² | - |
| 1778070831 | 15° C | 99% | 1004.1 hPa | 0 mm | - | 25 W/m² | - |
| 1778070528 | 15° C | 99% | 1004.1 hPa | 0 mm | - | 18 W/m² | - |
| 1778070225 | 15° C | 99% | 1004.1 hPa | 0 mm | - | 23 W/m² | - |
| 1778069923 | 15° C | 99% | 1003.7 hPa | 0 mm | - | 25 W/m² | - |
* Rain latest hour (hover to see other rain measurements)
** Current wind speed in m/s (hover to see current wind gust speed)